Regional Weather Roundup
Issued by NWS

Current Version | Previous Version | Text Only | Print | Product List | Glossary On
Versions: 1 2 3 4 5 6 7 8 9 10 11 12 13 14 15 16 17 18 19 20 21 22 23 24 25 26 27 28 29 30 31 32 33 34 35 36 37 38 39 40 41 42 43 44 45 46 47 48 49 50
000
ASUS42 KFFC 200810
RWRGA
WEATHER ROUNDUP FOR GEORGIA
NATIONAL WEATHER SERVICE PEACHTREE CITY GA
300 AM EST FRI JAN 20 2017

NOTE: "FAIR" INDICATES FEW OR NO CLOUDS BELOW 12,000 FEET WITH NO
SIGNIFICANT WEATHER AND/OR OBSTRUCTIONS TO VISIBILITY.

* = USE WITH CAUTION. THE STATIONS MARKED WITH AN ASTERISK MAY NOT
REPORT WEATHER SUCH AS PRECIPITATION, FOG, OR THUNDER AND ARE NOT
QUALITY CONTROLLED BY NWS.

THE REMARK "TC" DENOTES TEMPERATURE READING IN DEGREES CELSIUS.

GAZ001>058-200900-
NORTH GEORGIA

CITY           SKY/WX    TMP DP  RH WIND       PRES   REMARKS
ATLANTA        MOCLDY    64  61  90 SW14G23   29.82S
ATHENS         CLOUDY    59  59 100 S8        29.83S
CHAMBLEE       CLOUDY    62  59  90 S8        29.82R
PEACHTREE CITY PTCLDY    63  61  93 VRB5      29.83R
ROME           CLOUDY    58  55  90 CALM      29.78R
WEST ATLANTA   CLOUDY    64  60  87 S7        29.81S
GAINESVILLE    CLOUDY    53  52  96 CALM      29.85R
CARTERSVILLE   CLOUDY    63  60  90 S5        29.80S


CITY           SKY/WX    TMP DP  RH WIND       PRES   REMARKS
DALTON*        RAIN      54  54 100 CALM      29.79R
MARIETTA       CLOUDY    62  60  93 S6        29.81S
CANTON*        CLOUDY    54  50  87 E3        29.83F
$$

GAZ059>098-102>109-200900-
CENTRAL GEORGIA

CITY           SKY/WX    TMP DP  RH WIND       PRES   REMARKS
AUGUSTA-BUSH   CLOUDY    61  56  83 SE7       29.89F
AUGUSTA-DANIEL CLOUDY    61  54  77 SE7       29.89F
COLUMBUS       CLOUDY    63  61  93 SW7       29.84R
MACON          LGT RAIN  65  62  90 S17G31    29.84F
ROBINS AFB     DRIZZLE   64  63  94 S13       29.84F


CITY           SKY/WX    TMP DP  RH WIND       PRES   REMARKS
LAGRANGE*      CLOUDY    66  66 100 S8        29.83S
SYLVANIA*      CLOUDY   N/A N/A N/A S3        29.93F
MILLEDGEVILLE* LGT RAIN  63  63 100 CALM      29.83F
$$

GAZ099>101-110>166-200900-
SOUTH GEORGIA

CITY           SKY/WX    TMP DP  RH WIND       PRES   REMARKS
SAVANNAH       CLOUDY    59  56  89 SE3       29.94F
VALDOSTA       LGT RAIN  62  62 100 CALM      29.94S
ALMA           CLOUDY    63  63 100 S3        29.93F
ST SIMONS      CLOUDY    65  60  84 S7        29.94F
FT STEWART     CLOUDY    57  55  92 CALM      29.92S
ALBANY         LGT RAIN  65  64  97 SE14      29.84F
HUNTER AFB     CLOUDY    59  59 100 SE3       29.92F
MOODY AFB      CLOUDY    63  63 100 S3        29.93R
BRUNSWICK      CLOUDY    64  63  94 CALM      29.95S


CITY           SKY/WX    TMP DP  RH WIND       PRES   REMARKS
BAINBRIDGE*    CLOUDY    66  64  94 S14       29.82F
MOULTRIE*      LGT RAIN  64  63  94 SW6       29.94S
VIDALIA*       CLOUDY    63  63 100 S5        29.93F
WAYCROSS*      CLOUDY    65  65 100 S5        29.94F
DOUGLAS*       CLOUDY    63  61  94 S5        29.96S
$$



USA.gov is the U.S. government's official web portal to all federal, state and local government web resources and services.